User: anonymous   Login
Location: Koussan�
(15.2012°N, 12.5548°W)
Time: 23:33:01
(UTC+00:00)
Language:

Cosmos 1110 Rocket - Orbit

View from above orbital plane
View from above orbital plane
View from above satellite
View from above satellite

Ground track
Ground track

The orbit data is extracted from the following two-line orbital elements,

1 11427U 79060B   21018.77868324  .00000045  00000-0  23931-4 0  9995
2 11427  74.0176 131.0418 0020984 314.3288  45.6144 14.37443510176372
Epoch (UTC): 18 January 2021 18:41:18
Eccentricity: 0.0020984
inclination: 74.0176°
perigee height: 752 km
apogee height: 782 km
right ascension of ascending node: 131.0418°
argument of perigee: 314.3288°
revolutions per day: 14.37443510
mean anomaly at epoch: 45.6144°
orbit number at epoch: 17637

The dashed part of the orbit path shows where the satellite is in the earth's shadow,  

DLR